Regional Weather Roundup
Issued by NWS

Home | Current Version | Previous Version | Text Only | Print | Product List | Glossary On
Versions: 1 2 3 4 5 6 7 8 9 10 11 12 13 14 15 16 17 18 19 20 21 22 23 24 25 26 27 28
000
ASUS44 KBMX 232110
RWRAL

ALABAMA REGIONAL WEATHER ROUNDUP
NATIONAL WEATHER SERVICE BIRMINGHAM AL
400 PM CDT FRI JUN 23 2017

NOTE: "FAIR" INDICATES FEW OR NO CLOUDS BELOW 12,000 FEET
WITH NO SIGNIFICANT WEATHER AND/OR OBSTRUCTIONS TO VISIBILITY.

THE REMARK "TC" DENOTES TEMPERATURE IN DEGREES CELSIUS.

ALZ001>011-014-016>018-020-232200-
NORTH ALABAMA

CITY           SKY/WX    TMP DP  RH WIND       PRES   REMARKS
MUSCLE SHOALS  CLOUDY    76  72  87 W14       29.82S
HUNTSVILLE     LGT RAIN  76  75  97 SW17G28   29.84R
DECATUR        LGT RAIN  75  73  93 SW15      29.83R
HALEYVILLE     NOT AVBL
GADSDEN        TSTM      74  72  93 SW10G24   29.87R FOG
$$

ALZ012-013-022-023-030>036-040>044-232200-
WEST CENTRAL ALABAMA

CITY           SKY/WX    TMP DP  RH WIND       PRES   REMARKS
TUSCALOOSA     LGT RAIN  75  75 100 SW5       29.89F
$$

ALZ015-024>027-033>036-040>044-232200-
CENTRAL ALABAMA

CITY           SKY/WX    TMP DP  RH WIND       PRES   REMARKS
BIRMINGHAM     HVY RAIN  74  72  93 W15       29.94S FOG
MONTGOMERY     MOSUNNY   91  70  49 S13G20    29.90F HX  96
SHELBY CO ARPT TSTM      76  76 100 VRB3      29.89F FOG
MAXWELL AFB    NOT AVBL
GREENVILLE     PTSUNNY   89  70  53 S16G26    29.92F HX  94
$$

ALZ019-021-028-029-037-038-045>048-232200-
EAST CENTRAL ALABAMA

CITY           SKY/WX    TMP DP  RH WIND       PRES   REMARKS
ANNISTON       MOSUNNY   87  70  56 S15G25    29.87F HX  92
ALEXANDER CITY SUNNY     87  71  57 S15G22    29.91F HX  93
AUBURN         MOSUNNY   88  72  58 SW16      29.95F HX  94
$$

ALZ051>064-232200-
SOUTHWEST ALABAMA

CITY           SKY/WX    TMP DP  RH WIND       PRES   REMARKS
MOBILE         CLOUDY    84  76  76 S15       29.95F HX  93
BROOKLEY FIELD PTSUNNY   84  79  85 S13G22    29.95F HX  96
EVERGREEN      LGT RAIN  89  73  59 S16       29.93F HX  97
$$

ALZ049-050-065>069-232200-
SOUTHEAST ALABAMA

CITY           SKY/WX    TMP DP  RH WIND       PRES   REMARKS
DOTHAN         MOSUNNY   91  70  49 SW13      29.98F HX  96
OZARK          SUNNY     90  72  55 S20       29.95F HX  97
TROY           PTSUNNY   90  73  57 S15G26    29.94F HX  98
EUFAULA        FAIR      93  71  48 SW12G20   29.92F HX 100
$$




USA.gov is the U.S. government's official web portal to all federal, state and local government web resources and services.